| time (UTC) | temp C | wind direction | speed KPH | gust KPH | rain 1hr cm | rain 24hr cm | rain mn cm | humidity % | barometer mb |
| 20260905232804 | 33 | 193 | 3.2 | 8.0 | 0.00 | 0.00 | 0.00 | 39 | 1012.0 |
| 20260905232306 | 33 | 190 | 4.8 | 8.0 | 0.00 | 0.00 | 0.00 | 38 | 1012.0 |
| 20260905231804 | 33 | 276 | 4.8 | 14.5 | 0.00 | 0.00 | 0.00 | 36 | 1012.0 |
| 20260905231304 | 34 | 325 | 4.8 | 9.7 | 0.00 | 0.00 | 0.00 | 34 | 1012.0 |
| 20260905230803 | 34 | 288 | 3.2 | 11.3 | 0.00 | 0.00 | 0.00 | 34 | 1011.9 |
| 20260905230303 | 35 | 302 | 3.2 | 11.3 | 0.00 | 0.00 | 0.00 | 33 | 1011.9 |
| 20260905225305 | 36 | 302 | 8.0 | 16.1 | 0.00 | 0.00 | 0.00 | 31 | 1011.9 |
| 20260905224804 | 36 | 270 | 4.8 | 22.5 | 0.00 | 0.00 | 0.00 | 29 | 1011.8 |
| 20260905224303 | 38 | 302 | 3.2 | 16.1 | 0.00 | 0.00 | 0.00 | 28 | 1011.8 |
| 20260905223804 | 38 | 307 | 3.2 | 16.1 | 0.00 | 0.00 | 0.00 | 29 | 1011.8 |
| 20260905223304 | 37 | 348 | 8.0 | 12.9 | 0.00 | 0.00 | 0.00 | 31 | 1011.8 |
| 20260905222804 | 36 | 36 | 8.0 | 14.5 | 0.00 | 0.00 | 0.00 | 32 | 1011.9 |
| 20260905222306 | 36 | 280 | 4.8 | 9.7 | 0.00 | 0.00 | 0.00 | 32 | 1012.0 |
| 20260905221804 | 37 | 301 | 3.2 | 9.7 | 0.00 | 0.00 | 0.00 | 32 | 1012.0 |
| 20260905221304 | 36 | 302 | 3.2 | 3.2 | 0.00 | 0.00 | 0.00 | 33 | 1012.0 |
| 20260905220803 | 37 | 302 | 3.2 | 4.8 | 0.00 | 0.00 | 0.00 | 33 | 1011.9 |
| 20260905215804 | 37 | 72 | 6.4 | 22.5 | 0.00 | 0.00 | 0.00 | 32 | 1011.8 |
| 20260905215306 | 37 | 78 | 8.0 | 9.7 | 0.00 | 0.00 | 0.00 | 32 | 1011.8 |
| 20260905213804 | 38 | 302 | 8.0 | 14.5 | 0.00 | 0.00 | 0.00 | 32 | 1011.8 |
| 20260905213303 | 38 | 78 | 8.0 | 22.5 | 0.00 | 0.00 | 0.00 | 33 | 1011.8 |
| 20260905212804 | 37 | 267 | 9.7 | 16.1 | 0.00 | 0.00 | 0.00 | 34 | 1012.3 |
| 20260905212306 | 36 | 280 | 9.7 | 24.1 | 0.00 | 0.00 | 0.00 | 36 | 1012.7 |
| 20260905211304 | 35 | 212 | 9.7 | 19.3 | 0.00 | 0.00 | 0.00 | 34 | 1012.7 |
| 20260905210803 | 36 | 65 | 8.0 | 33.8 | 0.00 | 0.00 | 0.00 | 31 | 1012.3 |
| 20260905205804 | 38 | 179 | 1.6 | 9.7 | 0.00 | 0.00 | 0.00 | 26 | 1012.0 |
| 20260905205306 | 38 | 122 | 3.2 | 4.8 | 0.00 | 0.00 | 0.00 | 26 | 1012.0 |
| 20260905203804 | 38 | 316 | 8.0 | 12.9 | 0.00 | 0.00 | 0.00 | 24 | 1012.3 |
| 20260905203304 | 40 | 302 | 4.8 | 12.9 | 0.00 | 0.00 | 0.00 | 23 | 1012.3 |
| 20260905202803 | 40 | 329 | 3.2 | 8.0 | 0.00 | 0.00 | 0.00 | 23 | 1012.3 |
| 20260905202306 | 41 | 212 | 3.2 | 3.2 | 0.00 | 0.00 | 0.00 | 22 | 1012.3 |
| 20260905201804 | 40 | 325 | 4.8 | 14.5 | 0.00 | 0.00 | 0.00 | 24 | 1012.3 |
| 20260905201304 | 40 | 302 | 4.8 | 14.5 | 0.00 | 0.00 | 0.00 | 24 | 1012.3 |
| 20260905200803 | 39 | 294 | 4.8 | 11.3 | 0.00 | 0.00 | 0.00 | 24 | 1012.1 |
| 20260905200304 | 38 | 145 | 6.4 | 8.0 | 0.00 | 0.00 | 0.00 | 26 | 1012.0 |
| 20260905195804 | 40 | 18 | 4.8 | 14.5 | 0.00 | 0.00 | 0.00 | 24 | 1012.0 |
| 20260905195306 | 40 | 280 | 8.0 | 9.7 | 0.00 | 0.00 | 0.00 | 28 | 1012.0 |
| 20260905194304 | 39 | 258 | 3.2 | 9.7 | 0.00 | 0.00 | 0.00 | 29 | 1013.0 |
| 20260905193304 | 38 | 325 | 8.0 | 19.3 | 0.00 | 0.00 | 0.00 | 29 | 1013.0 |
| 20260905192306 | 37 | 348 | 9.7 | 14.5 | 0.00 | 0.00 | 0.00 | 31 | 1013.0 |
| 20260905191804 | 37 | 55 | 9.7 | 22.5 | 0.00 | 0.00 | 0.00 | 30 | 1013.0 |
| 20260905191304 | 38 | 32 | 8.0 | 29.0 | 0.00 | 0.00 | 0.00 | 29 | 1013.0 |
| 20260905190804 | 38 | 342 | 8.0 | 9.7 | 0.00 | 0.00 | 0.00 | 28 | 1013.2 |
| 20260905190304 | 38 | 100 | 6.4 | 12.9 | 0.00 | 0.00 | 0.00 | 29 | 1013.3 |
| 20260905185804 | 38 | 275 | 4.8 | 12.9 | 0.00 | 0.00 | 0.00 | 30 | 1013.3 |
| 20260905184304 | 38 | 302 | 6.4 | 19.3 | 0.00 | 0.00 | 0.00 | 33 | 1013.5 |
| 20260905183803 | 38 | 342 | 3.2 | 14.5 | 0.00 | 0.00 | 0.00 | 35 | 1013.5 |
| 20260905183304 | 38 | 280 | 8.0 | 11.3 | 0.00 | 0.00 | 0.00 | 36 | 1013.5 |
| 20260905182804 | 37 | 293 | 9.7 | 14.5 | 0.00 | 0.00 | 0.00 | 38 | 1013.8 |
| 20260905182305 | 36 | 168 | 9.7 | 14.5 | 0.00 | 0.00 | 0.00 | 38 | 1014.2 |
| 20260905181804 | 36 | 302 | 9.7 | 24.1 | 0.00 | 0.00 | 0.00 | 38 | 1014.2 |
| 20260905181304 | 35 | 100 | 8.0 | 14.5 | 0.00 | 0.00 | 0.00 | 41 | 1014.2 |
| 20260905180804 | 35 | 256 | 8.0 | 14.5 | 0.00 | 0.00 | 0.00 | 41 | 1013.8 |
| 20260905180304 | 34 | 280 | 6.4 | 16.1 | 0.00 | 0.00 | 0.00 | 44 | 1013.6 |
| 20260905175804 | 34 | 302 | 8.0 | 16.1 | 0.00 | 0.00 | 0.00 | 44 | 1013.6 |
| 20260905175306 | 33 | 145 | 4.8 | 16.1 | 0.00 | 0.00 | 0.00 | 44 | 1013.6 |
| 20260905174804 | 34 | 64 | 3.2 | 16.1 | 0.00 | 0.00 | 0.00 | 46 | 1013.8 |
| 20260905173804 | 33 | 302 | 8.0 | 12.9 | 0.00 | 0.00 | 0.00 | 46 | 1014.0 |
| 20260905173304 | 33 | 325 | 8.0 | 9.7 | 0.00 | 0.00 | 0.00 | 47 | 1014.0 |
| 20260905172305 | 33 | 55 | 3.2 | 8.0 | 0.00 | 0.00 | 0.00 | 48 | 1014.4 |
| 20260905171804 | 32 | 36 | 1.6 | 11.3 | 0.00 | 0.00 | 0.00 | 49 | 1014.4 |
| 20260905171304 | 32 | 78 | 3.2 | 11.3 | 0.00 | 0.00 | 0.00 | 49 | 1014.4 |
| 20260905170804 | 32 | 109 | 3.2 | 4.8 | 0.00 | 0.00 | 0.00 | 49 | 1014.6 |
| 20260905170304 | 32 | 32 | 3.2 | 9.7 | 0.00 | 0.00 | 0.00 | 49 | 1014.7 |
| 20260905165804 | 32 | 149 | 3.2 | 9.7 | 0.00 | 0.00 | 0.00 | 50 | 1014.7 |
| 20260905165306 | 31 | 302 | 3.2 | 12.9 | 0.00 | 0.00 | 0.00 | 50 | 1014.7 |
| 20260905164301 | 31 | 258 | 3.2 | 16.1 | 0.00 | 0.00 | 0.00 | 51 | 1015.0 |
| 20260905163800 | 31 | 302 | 3.2 | 9.7 | 0.00 | 0.00 | 0.00 | 52 | 1015.0 |
| 20260905163300 | 31 | 122 | 4.8 | 8.0 | 0.00 | 0.00 | 0.00 | 52 | 1015.0 |
| 20260905162800 | 31 | 302 | 8.0 | 14.5 | 0.00 | 0.00 | 0.00 | 52 | 1015.0 |
| 20260905160802 | 31 | 289 | 4.8 | 19.3 | 0.00 | 0.00 | 0.00 | 53 | 1014.9 |
| 20260905160301 | 30 | 348 | 3.2 | 3.2 | 0.00 | 0.00 | 0.00 | 54 | 1014.9 |
| 20260905155301 | 30 | 100 | 3.2 | 4.8 | 0.00 | 0.00 | 0.00 | 55 | 1014.9 |
| 20260905154801 | 30 | 286 | 6.4 | 12.9 | 0.00 | 0.00 | 0.00 | 56 | 1014.8 |
| 20260905154301 | 30 | 302 | 8.0 | 12.9 | 0.00 | 0.00 | 0.00 | 56 | 1014.8 |
| 20260905153800 | 30 | 18 | 4.8 | 12.9 | 0.00 | 0.00 | 0.00 | 57 | 1014.8 |
| 20260905153300 | 30 | 259 | 3.2 | 9.7 | 0.00 | 0.00 | 0.00 | 58 | 1013.8 |
| 20260905151301 | 29 | 122 | 3.2 | 9.7 | 0.00 | 0.00 | 0.00 | 60 | 1013.8 |
| 20260905150800 | 28 | 324 | 3.2 | 9.7 | 0.00 | 0.00 | 0.00 | 60 | 1013.8 |
| 20260905150301 | 28 | 258 | 3.2 | 9.7 | 0.00 | 0.00 | 0.00 | 60 | 1013.8 |
| 20260905145802 | 28 | 249 | 3.2 | 9.7 | 0.00 | 0.00 | 0.00 | 61 | 1013.8 |
| 20260905145301 | 28 | 302 | 3.2 | 11.3 | 0.00 | 0.00 | 0.00 | 62 | 1013.8 |
| 20260905144800 | 28 | 302 | 3.2 | 9.7 | 0.00 | 0.00 | 0.00 | 63 | 1013.8 |
| 20260905144301 | 27 | 78 | 1.6 | 12.9 | 0.00 | 0.00 | 0.00 | 64 | 1013.8 |
| 20260905143801 | 27 | 229 | 0.0 | 4.8 | 0.00 | 0.00 | 0.00 | 65 | 1013.8 |
| 20260905143301 | 27 | 147 | 1.6 | 4.8 | 0.00 | 0.00 | 0.00 | 66 | 1013.8 |
| 20260905142800 | 27 | 310 | 1.6 | 11.3 | 0.00 | 0.00 | 0.00 | 66 | 1013.8 |
| 20260905142305 | 26 | 145 | 1.6 | 4.8 | 0.00 | 0.00 | 0.00 | 66 | 1013.8 |
| 20260905141802 | 26 | 329 | 3.2 | 8.0 | 0.00 | 0.00 | 0.00 | 67 | 1013.8 |
| 20260905141301 | 26 | 100 | 3.2 | 8.0 | 0.00 | 0.00 | 0.00 | 67 | 1013.8 |
| 20260905140802 | 26 | 86 | 1.6 | 8.0 | 0.00 | 0.00 | 0.00 | 67 | 1013.8 |
| 20260905140301 | 26 | 122 | 0.0 | 0.0 | 0.00 | 0.00 | 0.00 | 67 | 1013.8 |
| 20260905135802 | 26 | 78 | 1.6 | 8.0 | 0.00 | 0.00 | 0.00 | 67 | 1013.8 |
| 20260905134801 | 26 | 114 | 3.2 | 9.7 | 0.00 | 0.00 | 0.00 | 68 | 1013.5 |
| 20260905134300 | 26 | 100 | 3.2 | 8.0 | 0.00 | 0.00 | 0.00 | 68 | 1013.5 |
| 20260905133800 | 26 | 62 | 1.6 | 8.0 | 0.00 | 0.00 | 0.00 | 69 | 1013.5 |
| 20260905133302 | 26 | 258 | 1.6 | 8.0 | 0.00 | 0.00 | 0.00 | 69 | 1013.5 |
| 20260905132801 | 26 | 100 | 1.6 | 8.0 | 0.00 | 0.00 | 0.00 | 70 | 1013.5 |
| 20260905131801 | 25 | 55 | 1.6 | 0.0 | 0.00 | 0.00 | 0.00 | 72 | 1013.5 |
| 20260905130801 | 25 | 150 | 1.6 | 0.0 | 0.00 | 0.00 | 0.00 | 74 | 1013.3 |
| 20260905130301 | 25 | 100 | 1.6 | 3.2 | 0.00 | 0.00 | 0.00 | 74 | 1013.3 |
| 20260905125801 | 25 | 100 | 1.6 | 4.8 | 0.00 | 0.00 | 0.00 | 74 | 1013.3 |
| 20260905125301 | 25 | 100 | 1.6 | 4.8 | 0.00 | 0.00 | 0.00 | 75 | 1013.3 |
| 20260905124800 | 25 | 118 | 0.0 | 3.2 | 0.00 | 0.00 | 0.00 | 75 | 1013.2 |
| 20260905124301 | 24 | 103 | 0.0 | 0.0 | 0.00 | 0.00 | 0.00 | 76 | 1013.2 |
| 20260905123801 | 24 | 119 | 0.0 | 3.2 | 0.00 | 0.00 | 0.00 | 77 | 1013.2 |
| 20260905123301 | 24 | 121 | 0.0 | 3.2 | 0.00 | 0.00 | 0.00 | 77 | 1013.2 |
| 20260905122800 | 24 | 84 | 0.0 | 0.0 | 0.00 | 0.00 | 0.00 | 78 | 1013.1 |
| 20260905122301 | 24 | 122 | 0.0 | 0.0 | 0.00 | 0.00 | 0.00 | 79 | 1013.0 |
| 20260905121800 | 23 | 128 | 0.0 | 0.0 | 0.00 | 0.00 | 0.00 | 81 | 1013.0 |
| 20260905120801 | 23 | 104 | 0.0 | 0.0 | 0.00 | 0.00 | 0.00 | 82 | 1012.8 |
| 20260905120301 | 23 | 100 | 0.0 | 0.0 | 0.00 | 0.00 | 0.00 | 81 | 1012.8 |
| 20260905115801 | 23 | 104 | 0.0 | 0.0 | 0.00 | 0.00 | 0.00 | 82 | 1012.8 |
| 20260905115300 | 23 | 106 | 0.0 | 0.0 | 0.00 | 0.00 | 0.00 | 81 | 1012.8 |
| 20260905114801 | 23 | 104 | 0.0 | 0.0 | 0.00 | 0.00 | 0.00 | 81 | 1012.8 |
| 20260905114300 | 23 | 145 | 0.0 | 0.0 | 0.00 | 0.00 | 0.00 | 81 | 1012.8 |
| 20260905113801 | 23 | 115 | 0.0 | 0.0 | 0.00 | 0.00 | 0.00 | 82 | 1012.8 |
| 20260905113300 | 23 | 100 | 0.0 | 0.0 | 0.00 | 0.00 | 0.00 | 81 | 1012.8 |
| 20260905112801 | 23 | 104 | 0.0 | 0.0 | 0.00 | 0.00 | 0.00 | 81 | 1012.7 |
| 20260905112305 | 23 | 100 | 0.0 | 0.0 | 0.00 | 0.00 | 0.00 | 81 | 1012.7 |
| 20260905111800 | 23 | 122 | 0.0 | 0.0 | 0.00 | 0.00 | 0.00 | 81 | 1012.7 |
| 20260905111300 | 23 | 100 | 0.0 | 0.0 | 0.00 | 0.00 | 0.00 | 81 | 1012.7 |
| 20260905110801 | 23 | 100 | 0.0 | 0.0 | 0.00 | 0.00 | 0.00 | 80 | 1012.8 |
| 20260905110301 | 23 | 100 | 0.0 | 0.0 | 0.00 | 0.00 | 0.00 | 80 | 1012.8 |
| 20260905105801 | 23 | 340 | 0.0 | 0.0 | 0.00 | 0.00 | 0.00 | 79 | 1012.8 |
| 20260905104802 | 23 | 127 | 0.0 | 0.0 | 0.00 | 0.00 | 0.00 | 78 | 1012.7 |
| 20260905104300 | 23 | 101 | 0.0 | 0.0 | 0.00 | 0.00 | 0.00 | 77 | 1012.7 |
| 20260905103801 | 23 | 118 | 0.0 | 0.0 | 0.00 | 0.00 | 0.00 | 77 | 1012.7 |
| 20260905103301 | 23 | 123 | 0.0 | 0.0 | 0.00 | 0.00 | 0.00 | 76 | 1012.7 |
| 20260905102801 | 24 | 69 | 0.0 | 0.0 | 0.00 | 0.00 | 0.00 | 76 | 1012.8 |
| 20260905102301 | 24 | 121 | 0.0 | 0.0 | 0.00 | 0.00 | 0.00 | 76 | 1012.8 |
| 20260905101801 | 24 | 95 | 0.0 | 0.0 | 0.00 | 0.00 | 0.00 | 76 | 1012.8 |
| 20260905101300 | 24 | 101 | 0.0 | 0.0 | 0.00 | 0.00 | 0.00 | 76 | 1012.8 |
| 20260905100801 | 24 | 105 | 0.0 | 0.0 | 0.00 | 0.00 | 0.00 | 76 | 1013.0 |
| 20260905100301 | 24 | 102 | 0.0 | 0.0 | 0.00 | 0.00 | 0.00 | 76 | 1013.0 |
| 20260905095801 | 24 | 100 | 0.0 | 0.0 | 0.00 | 0.00 | 0.00 | 76 | 1013.0 |
| 20260905095301 | 24 | 100 | 0.0 | 0.0 | 0.00 | 0.00 | 0.00 | 75 | 1013.0 |
| 20260905094801 | 24 | 100 | 0.0 | 0.0 | 0.00 | 0.00 | 0.00 | 73 | 1012.8 |
| 20260905093801 | 24 | 118 | 0.0 | 0.0 | 0.00 | 0.00 | 0.00 | 72 | 1012.8 |
| 20260905092800 | 25 | 118 | 0.0 | 0.0 | 0.00 | 0.00 | 0.00 | 72 | 1013.0 |
| 20260905092300 | 25 | 145 | 0.0 | 0.0 | 0.00 | 0.00 | 0.00 | 72 | 1013.0 |
| 20260905091801 | 25 | 145 | 0.0 | 0.0 | 0.00 | 0.00 | 0.00 | 71 | 1013.0 |
| 20260905090801 | 25 | 145 | 0.0 | 0.0 | 0.00 | 0.00 | 0.00 | 71 | 1012.7 |
| 20260905085800 | 25 | 118 | 0.0 | 0.0 | 0.00 | 0.00 | 0.00 | 72 | 1012.6 |
| 20260905085301 | 25 | 100 | 0.0 | 0.0 | 0.00 | 0.00 | 0.00 | 72 | 1012.6 |
| 20260905084801 | 25 | 127 | 0.0 | 0.0 | 0.00 | 0.00 | 0.00 | 72 | 1012.7 |
| 20260905084300 | 25 | 122 | 0.0 | 0.0 | 0.00 | 0.00 | 0.00 | 72 | 1012.7 |
| 20260905083801 | 25 | 100 | 0.0 | 0.0 | 0.00 | 0.00 | 0.00 | 72 | 1012.7 |
| 20260905083300 | 25 | 101 | 0.0 | 0.0 | 0.00 | 0.00 | 0.00 | 71 | 1012.7 |
| 20260905082800 | 25 | 100 | 0.0 | 3.2 | 0.00 | 0.00 | 0.00 | 71 | 1012.9 |
| 20260905082301 | 25 | 137 | 0.0 | 3.2 | 0.00 | 0.00 | 0.00 | 72 | 1012.9 |
| 20260905081800 | 25 | 118 | 0.0 | 0.0 | 0.00 | 0.00 | 0.00 | 71 | 1012.9 |
| 20260905081301 | 25 | 143 | 0.0 | 0.0 | 0.00 | 0.00 | 0.00 | 71 | 1012.9 |
| 20260905080801 | 25 | 122 | 0.0 | 0.0 | 0.00 | 0.00 | 0.00 | 70 | 1013.0 |
| 20260905080301 | 25 | 123 | 0.0 | 0.0 | 0.00 | 0.00 | 0.00 | 69 | 1013.0 |
| 20260905075801 | 25 | 133 | 0.0 | 0.0 | 0.00 | 0.00 | 0.00 | 69 | 1013.0 |
| 20260905075300 | 25 | 100 | 0.0 | 0.0 | 0.00 | 0.00 | 0.00 | 69 | 1013.0 |
| 20260905074300 | 25 | 80 | 0.0 | 0.0 | 0.00 | 0.00 | 0.00 | 69 | 1013.3 |
| 20260905073800 | 25 | 114 | 0.0 | 0.0 | 0.00 | 0.00 | 0.00 | 69 | 1013.3 |
| 20260905072305 | 25 | 34 | 0.0 | 0.0 | 0.00 | 0.00 | 0.00 | 69 | 1013.3 |
| 20260905071801 | 26 | 136 | 0.0 | 0.0 | 0.00 | 0.00 | 0.00 | 68 | 1013.3 |
| 20260905071301 | 26 | 144 | 0.0 | 0.0 | 0.00 | 0.00 | 0.00 | 68 | 1013.3 |
| 20260905070801 | 26 | 112 | 0.0 | 0.0 | 0.00 | 0.00 | 0.00 | 68 | 1013.2 |
| 20260905070301 | 26 | 122 | 0.0 | 0.0 | 0.00 | 0.00 | 0.00 | 68 | 1013.2 |
| 20260905065301 | 26 | 80 | 0.0 | 0.0 | 0.00 | 0.00 | 0.00 | 67 | 1013.2 |
| 20260905064800 | 26 | 190 | 0.0 | 0.0 | 0.00 | 0.00 | 0.00 | 66 | 1013.3 |
| 20260905064300 | 26 | 100 | 0.0 | 0.0 | 0.00 | 0.00 | 0.00 | 65 | 1013.4 |
| 20260905063800 | 26 | 104 | 0.0 | 0.0 | 0.00 | 0.00 | 0.00 | 64 | 1013.4 |
| 20260905063301 | 26 | 122 | 0.0 | 0.0 | 0.00 | 0.00 | 0.00 | 64 | 1013.4 |
| 20260905062300 | 26 | 102 | 0.0 | 0.0 | 0.00 | 0.00 | 0.00 | 63 | 1013.5 |
| 20260905061800 | 26 | 118 | 0.0 | 0.0 | 0.00 | 0.00 | 0.00 | 63 | 1013.5 |
| 20260905061301 | 26 | 257 | 0.0 | 0.0 | 0.00 | 0.00 | 0.00 | 62 | 1013.5 |
| 20260905060801 | 26 | 122 | 0.0 | 0.0 | 0.00 | 0.00 | 0.00 | 61 | 1013.3 |
| 20260905055801 | 26 | 105 | 0.0 | 0.0 | 0.00 | 0.00 | 0.00 | 61 | 1013.3 |
| 20260905055301 | 26 | 145 | 0.0 | 0.0 | 0.00 | 0.00 | 0.00 | 61 | 1013.3 |
| 20260905054800 | 27 | 140 | 0.0 | 0.0 | 0.00 | 0.00 | 0.00 | 60 | 1013.4 |
| 20260905054301 | 27 | 122 | 0.0 | 0.0 | 0.00 | 0.00 | 0.00 | 60 | 1013.4 |
| 20260905052801 | 27 | 109 | 0.0 | 0.0 | 0.00 | 0.00 | 0.00 | 60 | 1013.5 |
| 20260905052300 | 27 | 102 | 0.0 | 0.0 | 0.00 | 0.00 | 0.00 | 60 | 1013.5 |
| 20260905051801 | 27 | 136 | 0.0 | 0.0 | 0.00 | 0.00 | 0.00 | 60 | 1013.5 |
| 20260905051301 | 27 | 122 | 0.0 | 0.0 | 0.00 | 0.00 | 0.00 | 60 | 1013.5 |
| 20260905045300 | 27 | 121 | 0.0 | 0.0 | 0.00 | 0.00 | 0.00 | 59 | 1013.5 |
| 20260905044301 | 27 | 101 | 0.0 | 0.0 | 0.00 | 0.00 | 0.00 | 59 | 1013.2 |
| 20260905043800 | 27 | 104 | 0.0 | 0.0 | 0.00 | 0.00 | 0.00 | 58 | 1013.2 |
| 20260905043300 | 27 | 102 | 0.0 | 0.0 | 0.00 | 0.00 | 0.00 | 58 | 1013.2 |
| 20260905042800 | 27 | 178 | 0.0 | 0.0 | 0.00 | 0.00 | 0.00 | 58 | 1013.4 |
| 20260905042301 | 27 | 100 | 0.0 | 0.0 | 0.00 | 0.00 | 0.00 | 58 | 1013.5 |
| 20260905041800 | 27 | 122 | 0.0 | 0.0 | 0.00 | 0.00 | 0.00 | 58 | 1013.5 |
| 20260905040301 | 28 | 145 | 1.6 | 8.0 | 0.00 | 0.00 | 0.00 | 57 | 1013.1 |
| 20260905035801 | 28 | 100 | 1.6 | 8.0 | 0.00 | 0.00 | 0.00 | 57 | 1013.1 |
| 20260905035301 | 28 | 100 | 1.6 | 3.2 | 0.00 | 0.00 | 0.00 | 57 | 1013.1 |
| 20260905034801 | 28 | 104 | 0.0 | 3.2 | 0.00 | 0.00 | 0.00 | 57 | 1013.3 |
| 20260905034301 | 28 | 100 | 0.0 | 0.0 | 0.00 | 0.00 | 0.00 | 56 | 1013.3 |
| 20260905033801 | 28 | 112 | 0.0 | 0.0 | 0.00 | 0.00 | 0.00 | 56 | 1013.3 |
| 20260905032801 | 28 | 140 | 0.0 | 0.0 | 0.00 | 0.00 | 0.00 | 56 | 1013.5 |
| 20260905032301 | 28 | 209 | 0.0 | 0.0 | 0.00 | 0.00 | 0.00 | 55 | 1013.5 |
| 20260905031800 | 28 | 233 | 0.0 | 0.0 | 0.00 | 0.00 | 0.00 | 56 | 1013.5 |
| 20260905030301 | 28 | 122 | 0.0 | 0.0 | 0.00 | 0.00 | 0.00 | 56 | 1013.5 |
| 20260905024801 | 28 | 100 | 1.6 | 3.2 | 0.00 | 0.00 | 0.00 | 55 | 1013.3 |
| 20260905024300 | 28 | 120 | 0.0 | 3.2 | 0.00 | 0.00 | 0.00 | 55 | 1013.2 |
| 20260905023800 | 28 | 122 | 0.0 | 0.0 | 0.00 | 0.00 | 0.00 | 54 | 1013.2 |
| 20260905022801 | 29 | 122 | 0.0 | 0.0 | 0.00 | 0.00 | 0.00 | 52 | 1013.0 |
| 20260905022301 | 29 | 257 | 0.0 | 0.0 | 0.00 | 0.00 | 0.00 | 52 | 1013.0 |
| 20260905021301 | 29 | 122 | 0.0 | 0.0 | 0.00 | 0.00 | 0.00 | 50 | 1013.0 |
| 20260905020801 | 30 | 253 | 0.0 | 0.0 | 0.00 | 0.00 | 0.00 | 50 | 1012.8 |
| 20260905020301 | 30 | 101 | 0.0 | 0.0 | 0.00 | 0.00 | 0.00 | 50 | 1012.8 |
| 20260905015801 | 30 | 118 | 0.0 | 0.0 | 0.00 | 0.00 | 0.00 | 49 | 1012.8 |
| 20260905015301 | 30 | 146 | 0.0 | 0.0 | 0.00 | 0.00 | 0.00 | 49 | 1012.8 |
| 20260905014801 | 30 | 136 | 0.0 | 0.0 | 0.00 | 0.00 | 0.00 | 49 | 1012.8 |
| 20260905014301 | 30 | 101 | 0.0 | 0.0 | 0.00 | 0.00 | 0.00 | 48 | 1012.8 |
| 20260905013801 | 30 | 135 | 0.0 | 0.0 | 0.00 | 0.00 | 0.00 | 48 | 1012.8 |
| 20260905012300 | 30 | 80 | 0.0 | 0.0 | 0.00 | 0.00 | 0.00 | 47 | 1012.4 |
| 20260905011800 | 31 | 145 | 0.0 | 0.0 | 0.00 | 0.00 | 0.00 | 47 | 1012.4 |
| 20260905010801 | 31 | 145 | 1.6 | 0.0 | 0.00 | 0.00 | 0.00 | 46 | 1012.6 |
| 20260905005301 | 31 | 121 | 0.0 | 0.0 | 0.00 | 0.00 | 0.00 | 45 | 1012.6 |
| 20260905004801 | 31 | 118 | 0.0 | 0.0 | 0.00 | 0.00 | 0.00 | 44 | 1012.4 |
| 20260905004301 | 32 | 121 | 0.0 | 0.0 | 0.00 | 0.00 | 0.00 | 44 | 1012.3 |
| 20260905003301 | 32 | 100 | 0.0 | 3.2 | 0.00 | 0.00 | 0.00 | 43 | 1012.3 |
| 20260905002301 | 32 | 122 | 0.0 | 0.0 | 0.00 | 0.00 | 0.00 | 42 | 1012.6 |
| 20260905001801 | 32 | 107 | 0.0 | 0.0 | 0.00 | 0.00 | 0.00 | 42 | 1012.6 |
| 20260905001301 | 32 | 122 | 1.6 | 0.0 | 0.00 | 0.00 | 0.00 | 41 | 1012.6 |
| 20260905000801 | 32 | 100 | 1.6 | 8.0 | 0.00 | 0.00 | 0.00 | 40 | 1012.2 |
| 20260904235801 | 33 | 149 | 3.2 | 8.0 | 0.00 | 0.00 | 0.00 | 39 | 1012.1 |
| 20260904235301 | 33 | 121 | 4.8 | 8.0 | 0.00 | 0.00 | 0.00 | 39 | 1012.1 |
| 20260904233801 | 33 | 100 | 4.8 | 11.3 | 0.00 | 0.00 | 0.00 | 37 | 1012.0 |
| 20260904233301 | 33 | 122 | 4.8 | 8.0 | 0.00 | 0.00 | 0.00 | 37 | 1012.0 |